| time (UTC) | temp F | wind direction | speed MPH | gust MPH | rain 1hr in | rain 24hr in | rain mn in | humidity % | barometer mb |
| 20260510124254 | 41 | 108 | 6.0 | 7.0 | 0.00 | 0.00 | 0.00 | 66 | 1020.8 |
| 20260510123750 | 41 | 144 | 6.0 | 11.0 | 0.00 | 0.00 | 0.00 | 66 | 1021.1 |
| 20260510123246 | 41 | 68 | 7.0 | 14.0 | 0.00 | 0.00 | 0.00 | 66 | 1021.1 |
| 20260510122742 | 41 | 296 | 3.0 | 9.0 | 0.00 | 0.00 | 0.00 | 65 | 1021.0 |
| 20260510122238 | 41 | 83 | 1.0 | 14.0 | 0.00 | 0.00 | 0.00 | 65 | 1020.8 |
| 20260510121734 | 41 | 103 | 5.0 | 10.0 | 0.00 | 0.00 | 0.00 | 66 | 1021.0 |
| 20260510121232 | 40 | 90 | 2.0 | 7.0 | 0.00 | 0.00 | 0.00 | 66 | 1021.0 |
| 20260510120730 | 40 | 83 | 3.0 | 9.0 | 0.00 | 0.00 | 0.00 | 67 | 1021.1 |
| 20260510120226 | 41 | 123 | 1.0 | 8.0 | 0.00 | 0.00 | 0.00 | 66 | 1020.8 |
| 20260510115722 | 40 | 75 | 2.0 | 14.0 | 0.00 | 0.00 | 0.00 | 67 | 1021.1 |
| 20260510115220 | 40 | 69 | 4.0 | 10.0 | 0.00 | 0.00 | 0.00 | 67 | 1021.0 |
| 20260510114715 | 40 | 90 | 3.0 | 15.0 | 0.00 | 0.00 | 0.00 | 68 | 1021.0 |
| 20260510114212 | 40 | 59 | 6.0 | 11.0 | 0.00 | 0.00 | 0.00 | 67 | 1020.8 |
| 20260510113707 | 40 | 102 | 7.0 | 10.0 | 0.00 | 0.00 | 0.00 | 68 | 1020.7 |
| 20260510113204 | 40 | 83 | 6.0 | 11.0 | 0.00 | 0.00 | 0.00 | 68 | 1020.7 |
| 20260510112701 | 41 | 102 | 9.0 | 9.0 | 0.00 | 0.00 | 0.00 | 65 | 1021.0 |
| 20260510112158 | 41 | 100 | 7.0 | 7.0 | 0.00 | 0.00 | 0.00 | 64 | 1020.8 |
| 20260510111654 | 41 | 107 | 3.0 | 11.0 | 0.00 | 0.00 | 0.00 | 64 | 1020.8 |
| 20260510111151 | 41 | 85 | 3.0 | 7.0 | 0.00 | 0.00 | 0.00 | 65 | 1020.8 |
| 20260510110645 | 41 | 46 | 4.0 | 11.0 | 0.00 | 0.00 | 0.00 | 64 | 1020.7 |
| 20260510110143 | 42 | 23 | 4.0 | 14.0 | 0.00 | 0.00 | 0.00 | 64 | 1020.6 |
| 20260510105639 | 41 | 110 | 2.0 | 13.0 | 0.00 | 0.00 | 0.00 | 64 | 1020.7 |
| 20260510105138 | 41 | 85 | 4.0 | 10.0 | 0.00 | 0.00 | 0.00 | 64 | 1020.8 |
| 20260510104636 | 42 | 96 | 8.0 | 11.0 | 0.00 | 0.00 | 0.00 | 63 | 1020.6 |
| 20260510104132 | 42 | 93 | 6.0 | 10.0 | 0.00 | 0.00 | 0.00 | 63 | 1020.6 |
| 20260510103629 | 42 | 69 | 4.0 | 10.0 | 0.00 | 0.00 | 0.00 | 63 | 1020.7 |
| 20260510103125 | 42 | 98 | 3.0 | 9.0 | 0.00 | 0.00 | 0.00 | 63 | 1020.6 |
| 20260510102620 | 41 | 85 | 4.0 | 14.0 | 0.00 | 0.00 | 0.00 | 64 | 1020.7 |
| 20260510102117 | 41 | 75 | 5.0 | 7.0 | 0.00 | 0.00 | 0.00 | 64 | 1020.8 |
| 20260510101615 | 41 | 55 | 4.0 | 9.0 | 0.00 | 0.00 | 0.00 | 63 | 1020.7 |
| 20260510101112 | 42 | 73 | 6.0 | 9.0 | 0.00 | 0.00 | 0.00 | 62 | 1020.7 |
| 20260510100608 | 42 | 104 | 5.0 | 8.0 | 0.00 | 0.00 | 0.00 | 61 | 1020.7 |
| 20260510100106 | 42 | 20 | 3.0 | 7.0 | 0.00 | 0.00 | 0.00 | 61 | 1020.6 |
| 20260510095602 | 43 | 96 | 6.0 | 10.0 | 0.00 | 0.00 | 0.00 | 61 | 1020.7 |
| 20260510095101 | 43 | 103 | 10.0 | 12.0 | 0.00 | 0.00 | 0.00 | 60 | 1020.6 |
| 20260510094601 | 43 | 76 | 5.0 | 13.0 | 0.00 | 0.00 | 0.00 | 61 | 1021.0 |
| 20260510094056 | 43 | 71 | 6.0 | 9.0 | 0.00 | 0.00 | 0.00 | 61 | 1020.6 |
| 20260510093553 | 44 | 56 | 3.0 | 12.0 | 0.00 | 0.00 | 0.00 | 59 | 1020.6 |
| 20260510093049 | 43 | 71 | 3.0 | 9.0 | 0.00 | 0.00 | 0.00 | 60 | 1020.6 |
| 20260510092547 | 43 | 82 | 3.0 | 11.0 | 0.00 | 0.00 | 0.00 | 61 | 1020.7 |
| 20260510092046 | 42 | 97 | 4.0 | 12.0 | 0.00 | 0.00 | 0.00 | 62 | 1020.6 |
| 20260510091543 | 43 | 97 | 5.0 | 12.0 | 0.00 | 0.00 | 0.00 | 61 | 1020.8 |
| 20260510091039 | 44 | 107 | 6.0 | 8.0 | 0.00 | 0.00 | 0.00 | 58 | 1020.7 |
| 20260510090536 | 40 | 26 | 1.0 | 5.0 | 0.00 | 0.00 | 0.00 | 65 | 1020.7 |
| 20260510090032 | 40 | 157 | 0.0 | 2.0 | 0.00 | 0.00 | 0.00 | 64 | 1020.7 |
| 20260510085527 | 41 | 131 | 1.0 | 4.0 | 0.00 | 0.00 | 0.00 | 64 | 1020.6 |
| 20260510085023 | 42 | 150 | 2.0 | 4.0 | 0.00 | 0.00 | 0.00 | 61 | 1020.6 |
| 20260510084520 | 44 | 120 | 4.0 | 10.0 | 0.00 | 0.00 | 0.00 | 59 | 1020.5 |
| 20260510084017 | 44 | 88 | 10.0 | 11.0 | 0.00 | 0.00 | 0.00 | 59 | 1020.5 |
| 20260510083513 | 44 | 98 | 4.0 | 12.0 | 0.00 | 0.00 | 0.00 | 59 | 1020.4 |
| 20260510083010 | 43 | 135 | 4.0 | 9.0 | 0.00 | 0.00 | 0.00 | 60 | 1020.4 |
| 20260510082507 | 43 | 79 | 3.0 | 11.0 | 0.00 | 0.00 | 0.00 | 60 | 1020.2 |
| 20260510082006 | 44 | 24 | 2.0 | 9.0 | 0.00 | 0.00 | 0.00 | 59 | 1020.4 |
| 20260510081502 | 43 | 354 | 3.0 | 9.0 | 0.00 | 0.00 | 0.00 | 60 | 1020.5 |
| 20260510080958 | 44 | 99 | 8.0 | 10.0 | 0.00 | 0.00 | 0.00 | 60 | 1020.4 |
| 20260510080456 | 43 | 90 | 3.0 | 8.0 | 0.00 | 0.00 | 0.00 | 60 | 1020.4 |
| 20260510075954 | 44 | 92 | 5.0 | 7.0 | 0.00 | 0.00 | 0.00 | 60 | 1020.6 |
| 20260510075451 | 44 | 26 | 3.0 | 13.0 | 0.00 | 0.00 | 0.00 | 60 | 1020.4 |
| 20260510074948 | 43 | 90 | 3.0 | 11.0 | 0.00 | 0.00 | 0.00 | 60 | 1020.5 |
| 20260510074445 | 43 | 106 | 3.0 | 8.0 | 0.00 | 0.00 | 0.00 | 61 | 1020.4 |
| 20260510073941 | 43 | 42 | 3.0 | 13.0 | 0.00 | 0.00 | 0.00 | 61 | 1020.6 |
| 20260510073437 | 44 | 101 | 6.0 | 9.0 | 0.00 | 0.00 | 0.00 | 60 | 1020.4 |
| 20260510072934 | 44 | 99 | 5.0 | 12.0 | 0.00 | 0.00 | 0.00 | 60 | 1020.4 |
| 20260510072431 | 43 | 88 | 7.0 | 10.0 | 0.00 | 0.00 | 0.00 | 61 | 1020.2 |
| 20260510071927 | 43 | 83 | 3.0 | 11.0 | 0.00 | 0.00 | 0.00 | 61 | 1020.4 |
| 20260510071423 | 43 | 42 | 3.0 | 9.0 | 0.00 | 0.00 | 0.00 | 61 | 1020.4 |
| 20260510070922 | 43 | 81 | 7.0 | 9.0 | 0.00 | 0.00 | 0.00 | 61 | 1020.4 |
| 20260510070419 | 43 | 94 | 3.0 | 12.0 | 0.00 | 0.00 | 0.00 | 61 | 1020.5 |
| 20260510065914 | 43 | 95 | 8.0 | 11.0 | 0.00 | 0.00 | 0.00 | 61 | 1020.5 |
| 20260510065410 | 43 | 118 | 4.0 | 9.0 | 0.00 | 0.00 | 0.00 | 62 | 1020.5 |
| 20260510064907 | 44 | 73 | 0.0 | 8.0 | 0.00 | 0.00 | 0.00 | 60 | 1020.5 |
| 20260510064405 | 44 | 97 | 3.0 | 10.0 | 0.00 | 0.00 | 0.00 | 59 | 1020.5 |
| 20260510063901 | 44 | 265 | 2.0 | 9.0 | 0.00 | 0.00 | 0.00 | 60 | 1020.5 |
| 20260510063357 | 44 | 92 | 5.0 | 9.0 | 0.00 | 0.00 | 0.00 | 60 | 1020.4 |
| 20260510062855 | 44 | 93 | 8.0 | 8.0 | 0.00 | 0.00 | 0.00 | 60 | 1020.1 |
| 20260510062350 | 43 | 84 | 2.0 | 8.0 | 0.00 | 0.00 | 0.00 | 61 | 1020.2 |
| 20260510061845 | 44 | 108 | 3.0 | 6.0 | 0.00 | 0.00 | 0.00 | 61 | 1020.2 |
| 20260510061343 | 44 | 116 | 5.0 | 7.0 | 0.00 | 0.00 | 0.00 | 61 | 1020.4 |
| 20260510060838 | 44 | 344 | 0.0 | 7.0 | 0.00 | 0.00 | 0.00 | 60 | 1020.2 |
| 20260510060336 | 44 | 67 | 5.0 | 10.0 | 0.00 | 0.00 | 0.00 | 61 | 1020.2 |
| 20260510055832 | 44 | 87 | 6.0 | 9.0 | 0.00 | 0.00 | 0.00 | 60 | 1020.2 |
| 20260510055330 | 44 | 90 | 5.0 | 9.0 | 0.00 | 0.00 | 0.00 | 60 | 1020.2 |
| 20260510054825 | 44 | 47 | 5.0 | 12.0 | 0.00 | 0.00 | 0.00 | 60 | 1020.2 |
| 20260510054321 | 44 | 132 | 5.0 | 9.0 | 0.00 | 0.00 | 0.00 | 61 | 1020.1 |
| 20260510053815 | 44 | 107 | 6.0 | 11.0 | 0.00 | 0.00 | 0.00 | 60 | 1020.2 |
| 20260510053306 | 44 | 94 | 7.0 | 8.0 | 0.00 | 0.00 | 0.00 | 61 | 1020.1 |
| 20260510052802 | 44 | 86 | 2.0 | 7.0 | 0.00 | 0.00 | 0.00 | 60 | 1020.2 |
| 20260510052257 | 44 | 82 | 5.0 | 7.0 | 0.00 | 0.00 | 0.00 | 60 | 1020.2 |
| 20260510051754 | 44 | 74 | 0.0 | 7.0 | 0.00 | 0.00 | 0.00 | 61 | 1020.2 |
| 20260510051245 | 44 | 83 | 6.0 | 8.0 | 0.00 | 0.00 | 0.00 | 61 | 1020.2 |
| 20260510050742 | 44 | 75 | 4.0 | 8.0 | 0.00 | 0.00 | 0.00 | 62 | 1020.2 |
| 20260510050238 | 44 | 79 | 2.0 | 10.0 | 0.00 | 0.00 | 0.00 | 62 | 1020.4 |
| 20260510045735 | 45 | 86 | 3.0 | 9.0 | 0.00 | 0.00 | 0.00 | 61 | 1020.2 |
| 20260510045232 | 45 | 79 | 2.0 | 5.0 | 0.00 | 0.00 | 0.00 | 60 | 1020.4 |
| 20260510044728 | 45 | 120 | 5.0 | 6.0 | 0.00 | 0.00 | 0.00 | 59 | 1020.2 |
| 20260510044226 | 46 | 137 | 6.0 | 8.0 | 0.00 | 0.00 | 0.00 | 59 | 1020.2 |
| 20260510043716 | 46 | 74 | 3.0 | 10.0 | 0.00 | 0.00 | 0.00 | 59 | 1020.2 |
| 20260510043213 | 46 | 90 | 5.0 | 10.0 | 0.00 | 0.00 | 0.00 | 60 | 1020.0 |
| 20260510042710 | 45 | 88 | 5.0 | 7.0 | 0.00 | 0.00 | 0.00 | 61 | 1020.2 |
| 20260510042206 | 47 | 94 | 7.0 | 9.0 | 0.00 | 0.00 | 0.00 | 58 | 1020.1 |
| 20260510041704 | 48 | 80 | 6.0 | 7.0 | 0.00 | 0.00 | 0.00 | 57 | 1020.0 |
| 20260510041201 | 48 | 74 | 5.0 | 11.0 | 0.00 | 0.00 | 0.00 | 57 | 1019.9 |
| 20260510040657 | 48 | 97 | 4.0 | 6.0 | 0.00 | 0.00 | 0.00 | 57 | 1019.9 |
| 20260510040154 | 48 | 79 | 5.0 | 12.0 | 0.00 | 0.00 | 0.00 | 58 | 1019.9 |
| 20260510035650 | 48 | 105 | 1.0 | 10.0 | 0.00 | 0.00 | 0.00 | 56 | 1019.9 |
| 20260510035145 | 49 | 94 | 3.0 | 7.0 | 0.00 | 0.00 | 0.00 | 56 | 1019.8 |
| 20260510034642 | 49 | 109 | 3.0 | 9.0 | 0.00 | 0.00 | 0.00 | 56 | 1019.6 |
| 20260510034139 | 49 | 102 | 7.0 | 8.0 | 0.00 | 0.00 | 0.00 | 56 | 1019.8 |
| 20260510033635 | 50 | 90 | 2.0 | 7.0 | 0.00 | 0.00 | 0.00 | 55 | 1019.9 |
| 20260510033133 | 50 | 97 | 5.0 | 7.0 | 0.00 | 0.00 | 0.00 | 56 | 1019.6 |
| 20260510032630 | 50 | 90 | 1.0 | 7.0 | 0.00 | 0.00 | 0.00 | 56 | 1019.6 |
| 20260510032125 | 50 | 75 | 4.0 | 7.0 | 0.00 | 0.00 | 0.00 | 56 | 1019.5 |
| 20260510031620 | 50 | 107 | 2.0 | 7.0 | 0.00 | 0.00 | 0.00 | 56 | 1019.6 |
| 20260510031117 | 50 | 90 | 3.0 | 7.0 | 0.00 | 0.00 | 0.00 | 55 | 1019.5 |
| 20260510030611 | 50 | 105 | 2.0 | 5.0 | 0.00 | 0.00 | 0.00 | 57 | 1019.3 |
| 20260510030109 | 49 | 110 | 0.0 | 3.0 | 0.00 | 0.00 | 0.00 | 59 | 1019.1 |
| 20260510025606 | 50 | 95 | 3.0 | 5.0 | 0.00 | 0.00 | 0.00 | 60 | 1019.3 |
| 20260510025104 | 51 | 99 | 0.0 | 3.0 | 0.00 | 0.00 | 0.00 | 57 | 1019.1 |
| 20260510024600 | 51 | 90 | 2.0 | 3.0 | 0.00 | 0.00 | 0.00 | 59 | 1019.1 |
| 20260510024056 | 52 | 90 | 0.0 | 2.0 | 0.00 | 0.00 | 0.00 | 57 | 1019.0 |
| 20260510023553 | 52 | 90 | 1.0 | 3.0 | 0.00 | 0.00 | 0.00 | 58 | 1019.1 |
| 20260510023050 | 52 | 86 | 3.0 | 3.0 | 0.00 | 0.00 | 0.00 | 57 | 1018.9 |
| 20260510022544 | 54 | 90 | 2.0 | 3.0 | 0.00 | 0.00 | 0.00 | 50 | 1019.1 |
| 20260510022043 | 54 | 90 | 0.0 | 0.0 | 0.00 | 0.00 | 0.00 | 46 | 1019.0 |
| 20260510021540 | 54 | 0 | 0.0 | 0.0 | 0.00 | 0.00 | 0.00 | 45 | 1019.0 |
| 20260510021038 | 55 | 103 | 1.0 | 2.0 | 0.00 | 0.00 | 0.00 | 42 | 1018.9 |
| 20260510020532 | 55 | 35 | 0.0 | 2.0 | 0.00 | 0.00 | 0.00 | 44 | 1018.9 |
| 20260510020028 | 54 | 109 | 1.0 | 1.0 | 0.00 | 0.00 | 0.00 | 43 | 1018.9 |
| 20260510015523 | 55 | 188 | 0.0 | 0.0 | 0.00 | 0.00 | 0.00 | 43 | 1018.9 |
| 20260510015020 | 55 | 188 | 0.0 | 0.0 | 0.00 | 0.00 | 0.00 | 42 | 1019.0 |
| 20260510014516 | 55 | 120 | 0.0 | 2.0 | 0.00 | 0.00 | 0.00 | 44 | 1018.8 |
| 20260510014014 | 56 | 180 | 1.0 | 3.0 | 0.00 | 0.00 | 0.00 | 40 | 1018.9 |
| 20260510013508 | 57 | 194 | 0.0 | 2.0 | 0.00 | 0.00 | 0.00 | 41 | 1018.9 |
| 20260510013004 | 57 | 220 | 0.0 | 3.0 | 0.00 | 0.00 | 0.00 | 38 | 1018.8 |
| 20260510012458 | 57 | 220 | 3.0 | 3.0 | 0.00 | 0.00 | 0.00 | 40 | 1018.8 |
| 20260510011954 | 59 | 225 | 3.0 | 3.0 | 0.00 | 0.00 | 0.00 | 41 | 1018.8 |
| 20260510011449 | 60 | 0 | 0.0 | 2.0 | 0.00 | 0.00 | 0.00 | 38 | 1018.8 |
| 20260510010945 | 60 | 352 | 0.0 | 7.0 | 0.00 | 0.00 | 0.00 | 38 | 1018.8 |
| 20260510010443 | 60 | 328 | 2.0 | 4.0 | 0.00 | 0.00 | 0.00 | 36 | 1018.8 |
| 20260510005939 | 62 | 315 | 0.0 | 3.0 | 0.00 | 0.00 | 0.00 | 36 | 1018.7 |
| 20260510005435 | 61 | 270 | 5.0 | 5.0 | 0.00 | 0.00 | 0.00 | 37 | 1018.7 |
| 20260510004933 | 61 | 254 | 0.0 | 3.0 | 0.00 | 0.00 | 0.00 | 42 | 1018.8 |
| 20260510004430 | 60 | 297 | 3.0 | 3.0 | 0.00 | 0.00 | 0.00 | 43 | 1018.8 |
| 20260510003928 | 58 | 204 | 2.0 | 4.0 | 0.00 | 0.00 | 0.00 | 42 | 1018.7 |
| 20260510003425 | 57 | 289 | 2.0 | 4.0 | 0.00 | 0.00 | 0.00 | 42 | 1018.8 |
| 20260510002924 | 57 | 303 | 3.0 | 6.0 | 0.00 | 0.00 | 0.00 | 43 | 1018.7 |
| 20260510002421 | 58 | 279 | 3.0 | 7.0 | 0.00 | 0.00 | 0.00 | 41 | 1018.8 |
| 20260510001917 | 59 | 239 | 2.0 | 8.0 | 0.00 | 0.00 | 0.00 | 42 | 1018.8 |
| 20260510001415 | 60 | 289 | 3.0 | 6.0 | 0.00 | 0.00 | 0.00 | 41 | 1018.7 |
| 20260510000912 | 59 | 203 | 4.0 | 4.0 | 0.00 | 0.00 | 0.00 | 40 | 1018.7 |
| 20260510000411 | 59 | 203 | 0.0 | 1.0 | 0.00 | 0.00 | 0.00 | 39 | 1018.8 |
| 20260509235905 | 57 | 356 | 2.0 | 2.0 | 0.00 | 0.00 | 0.00 | 40 | 1018.7 |
| 20260509235402 | 56 | 331 | 0.0 | 5.0 | 0.00 | 0.00 | 0.00 | 44 | 1018.7 |
| 20260509234858 | 56 | 279 | 0.0 | 5.0 | 0.00 | 0.00 | 0.00 | 43 | 1018.5 |
| 20260509234355 | 56 | 287 | 3.0 | 4.0 | 0.00 | 0.00 | 0.00 | 44 | 1018.7 |
| 20260509233853 | 56 | 19 | 2.0 | 5.0 | 0.00 | 0.00 | 0.00 | 43 | 1018.7 |
| 20260509233351 | 57 | 270 | 3.0 | 5.0 | 0.00 | 0.00 | 0.00 | 44 | 1018.4 |
| 20260509232846 | 57 | 290 | 4.0 | 6.0 | 0.00 | 0.00 | 0.00 | 43 | 1018.7 |
| 20260509232345 | 58 | 288 | 5.0 | 6.0 | 0.00 | 0.00 | 0.00 | 42 | 1018.4 |
| 20260509231840 | 58 | 7 | 2.0 | 5.0 | 0.00 | 0.00 | 0.00 | 41 | 1018.5 |
| 20260509231337 | 57 | 283 | 2.0 | 5.0 | 0.00 | 0.00 | 0.00 | 44 | 1018.5 |
| 20260509230835 | 56 | 296 | 4.0 | 5.0 | 0.00 | 0.00 | 0.00 | 44 | 1018.4 |
| 20260509230332 | 56 | 282 | 6.0 | 6.0 | 0.00 | 0.00 | 0.00 | 43 | 1018.5 |
| 20260509225826 | 57 | 250 | 4.0 | 8.0 | 0.00 | 0.00 | 0.00 | 42 | 1018.4 |
| 20260509225324 | 57 | 279 | 2.0 | 6.0 | 0.00 | 0.00 | 0.00 | 39 | 1018.7 |
| 20260509224820 | 60 | 310 | 4.0 | 10.0 | 0.00 | 0.00 | 0.00 | 41 | 1018.7 |
| 20260509224316 | 60 | 270 | 7.0 | 10.0 | 0.00 | 0.00 | 0.00 | 39 | 1018.5 |
| 20260509223812 | 59 | 265 | 4.0 | 9.0 | 0.00 | 0.00 | 0.00 | 41 | 1018.5 |
| 20260509223310 | 60 | 311 | 3.0 | 12.0 | 0.00 | 0.00 | 0.00 | 39 | 1018.5 |
| 20260509222807 | 60 | 305 | 4.0 | 9.0 | 0.00 | 0.00 | 0.00 | 40 | 1018.8 |
| 20260509222306 | 58 | 252 | 4.0 | 10.0 | 0.00 | 0.00 | 0.00 | 39 | 1018.7 |
| 20260509221758 | 61 | 273 | 3.0 | 12.0 | 0.00 | 0.00 | 0.00 | 40 | 1018.5 |
| 20260509221255 | 59 | 270 | 1.0 | 6.0 | 0.00 | 0.00 | 0.00 | 41 | 1018.7 |
| 20260509220750 | 59 | 291 | 1.0 | 9.0 | 0.00 | 0.00 | 0.00 | 38 | 1018.5 |
| 20260509220247 | 58 | 280 | 7.0 | 11.0 | 0.00 | 0.00 | 0.00 | 39 | 1018.5 |
| 20260509215742 | 58 | 240 | 1.0 | 6.0 | 0.00 | 0.00 | 0.00 | 39 | 1018.8 |
| 20260509215239 | 60 | 350 | 3.0 | 8.0 | 0.00 | 0.00 | 0.00 | 39 | 1018.7 |
| 20260509214736 | 60 | 311 | 5.0 | 8.0 | 0.00 | 0.00 | 0.00 | 43 | 1018.8 |
| 20260509214234 | 61 | 278 | 4.0 | 11.0 | 0.00 | 0.00 | 0.00 | 42 | 1018.5 |
| 20260509213731 | 60 | 288 | 10.0 | 15.0 | 0.00 | 0.00 | 0.00 | 40 | 1018.7 |
| 20260509213226 | 58 | 276 | 5.0 | 16.0 | 0.00 | 0.00 | 0.00 | 40 | 1018.7 |
| 20260509212723 | 59 | 223 | 4.0 | 11.0 | 0.00 | 0.00 | 0.00 | 39 | 1018.5 |
| 20260509212220 | 60 | 249 | 11.0 | 13.0 | 0.00 | 0.00 | 0.00 | 39 | 1018.7 |
| 20260509211716 | 60 | 292 | 7.0 | 15.0 | 0.00 | 0.00 | 0.00 | 41 | 1018.7 |
| 20260509211213 | 59 | 280 | 2.0 | 9.0 | 0.00 | 0.00 | 0.00 | 40 | 1018.7 |
| 20260509210709 | 57 | 246 | 1.0 | 9.0 | 0.00 | 0.00 | 0.00 | 42 | 1018.5 |
| 20260509210207 | 57 | 284 | 11.0 | 12.0 | 0.00 | 0.00 | 0.00 | 38 | 1018.5 |
| 20260509205707 | 57 | 238 | 3.0 | 17.0 | 0.00 | 0.00 | 0.00 | 37 | 1018.4 |
| 20260509205206 | 58 | 227 | 9.0 | 9.0 | 0.00 | 0.00 | 0.00 | 40 | 1018.7 |
| 20260509204703 | 59 | 206 | 7.0 | 15.0 | 0.00 | 0.00 | 0.00 | 41 | 1018.5 |
| 20260509204159 | 58 | 357 | 2.0 | 9.0 | 0.00 | 0.00 | 0.00 | 39 | 1018.7 |
| 20260509203655 | 60 | 276 | 5.0 | 9.0 | 0.00 | 0.00 | 0.00 | 38 | 1018.7 |
| 20260509203154 | 58 | 0 | 2.0 | 9.0 | 0.00 | 0.00 | 0.00 | 40 | 1018.7 |
| 20260509202649 | 58 | 343 | 3.0 | 13.0 | 0.00 | 0.00 | 0.00 | 45 | 1018.7 |
| 20260509202144 | 56 | 257 | 4.0 | 10.0 | 0.00 | 0.00 | 0.00 | 44 | 1018.5 |
| 20260509201639 | 59 | 315 | 7.0 | 22.0 | 0.00 | 0.00 | 0.00 | 39 | 1018.4 |
| 20260509201137 | 58 | 229 | 8.0 | 10.0 | 0.00 | 0.00 | 0.00 | 38 | 1018.5 |
| 20260509200633 | 57 | 240 | 8.0 | 8.0 | 0.00 | 0.00 | 0.00 | 41 | 1018.7 |
| 20260509200128 | 59 | 255 | 6.0 | 12.0 | 0.00 | 0.00 | 0.00 | 41 | 1018.7 |
| 20260509195624 | 56 | 216 | 9.0 | 14.0 | 0.00 | 0.00 | 0.00 | 44 | 1018.5 |
| 20260509195119 | 57 | 210 | 9.0 | 11.0 | 0.00 | 0.00 | 0.00 | 42 | 1018.5 |
| 20260509194618 | 55 | 240 | 3.0 | 7.0 | 0.00 | 0.00 | 0.00 | 40 | 1018.5 |
| 20260509194116 | 55 | 226 | 6.0 | 9.0 | 0.00 | 0.00 | 0.00 | 46 | 1018.7 |
| 20260509193612 | 57 | 298 | 9.0 | 12.0 | 0.00 | 0.00 | 0.00 | 45 | 1018.5 |
| 20260509193103 | 57 | 228 | 9.0 | 11.0 | 0.00 | 0.00 | 0.00 | 46 | 1018.7 |
| 20260509192559 | 56 | 275 | 6.0 | 7.0 | 0.00 | 0.00 | 0.00 | 43 | 1018.5 |
| 20260509192048 | 56 | 261 | 6.0 | 10.0 | 0.00 | 0.00 | 0.00 | 43 | 1018.7 |
| 20260509191548 | 53 | 294 | 5.0 | 7.0 | 0.00 | 0.00 | 0.00 | 45 | 1018.7 |
| 20260509191044 | 53 | 293 | 5.0 | 9.0 | 0.00 | 0.00 | 0.00 | 47 | 1018.8 |
| 20260509190541 | 54 | 290 | 11.0 | 15.0 | 0.00 | 0.00 | 0.00 | 46 | 1018.7 |
| 20260509190040 | 56 | 338 | 5.0 | 7.0 | 0.00 | 0.00 | 0.00 | 46 | 1018.7 |
| 20260509185537 | 55 | 213 | 4.0 | 12.0 | 0.00 | 0.00 | 0.00 | 46 | 1018.8 |
| 20260509185033 | 55 | 278 | 1.0 | 7.0 | 0.00 | 0.00 | 0.00 | 45 | 1018.8 |
| 20260509184531 | 55 | 290 | 5.0 | 10.0 | 0.00 | 0.00 | 0.00 | 46 | 1018.9 |
| 20260509184027 | 55 | 270 | 3.0 | 5.0 | 0.00 | 0.00 | 0.00 | 45 | 1018.8 |
| 20260509183522 | 53 | 270 | 3.0 | 5.0 | 0.00 | 0.00 | 0.00 | 49 | 1018.9 |
| 20260509183019 | 54 | 294 | 5.0 | 10.0 | 0.00 | 0.00 | 0.00 | 49 | 1018.8 |
| 20260509182515 | 52 | 17 | 2.0 | 7.0 | 0.00 | 0.00 | 0.00 | 47 | 1018.8 |
| 20260509182012 | 51 | 191 | 4.0 | 9.0 | 0.00 | 0.00 | 0.00 | 45 | 1018.8 |
| 20260509181511 | 52 | 90 | 3.0 | 6.0 | 0.00 | 0.00 | 0.00 | 46 | 1018.8 |
| 20260509181008 | 53 | 83 | 4.0 | 7.0 | 0.00 | 0.00 | 0.00 | 44 | 1018.8 |
| 20260509180502 | 54 | 26 | 2.0 | 4.0 | 0.00 | 0.00 | 0.00 | 48 | 1018.8 |
| 20260509180000 | 54 | 15 | 3.0 | 7.0 | 0.00 | 0.00 | 0.00 | 44 | 1018.8 |
| 20260509175456 | 54 | 82 | 1.0 | 3.0 | 0.00 | 0.00 | 0.00 | 46 | 1018.8 |
| 20260509174953 | 52 | 23 | 3.0 | 9.0 | 0.00 | 0.00 | 0.00 | 45 | 1018.8 |
| 20260509174449 | 53 | 349 | 4.0 | 4.0 | 0.00 | 0.00 | 0.00 | 47 | 1018.5 |
| 20260509173944 | 53 | 233 | 2.0 | 6.0 | 0.00 | 0.00 | 0.00 | 49 | 1018.7 |
| 20260509173439 | 53 | 270 | 5.0 | 8.0 | 0.00 | 0.00 | 0.00 | 44 | 1018.7 |
| 20260509172936 | 53 | 1 | 5.0 | 5.0 | 0.00 | 0.00 | 0.00 | 45 | 1018.8 |
| 20260509172433 | 52 | 212 | 3.0 | 9.0 | 0.00 | 0.00 | 0.00 | 45 | 1018.5 |
| 20260509171928 | 52 | 278 | 4.0 | 6.0 | 0.00 | 0.00 | 0.00 | 46 | 1018.7 |
| 20260509171424 | 52 | 281 | 3.0 | 7.0 | 0.00 | 0.00 | 0.00 | 45 | 1018.5 |
| 20260509170921 | 54 | 357 | 3.0 | 5.0 | 0.00 | 0.00 | 0.00 | 44 | 1018.5 |
| 20260509170417 | 53 | 293 | 0.0 | 6.0 | 0.00 | 0.00 | 0.00 | 43 | 1018.4 |
| 20260509165913 | 55 | 131 | 2.0 | 4.0 | 0.00 | 0.00 | 0.00 | 44 | 1018.4 |
| 20260509165407 | 54 | 274 | 2.0 | 7.0 | 0.00 | 0.00 | 0.00 | 44 | 1018.4 |
| 20260509164903 | 51 | 290 | 4.0 | 8.0 | 0.00 | 0.00 | 0.00 | 43 | 1018.4 |
| 20260509164359 | 51 | 107 | 2.0 | 3.0 | 0.00 | 0.00 | 0.00 | 49 | 1018.4 |
| 20260509163855 | 50 | 198 | 2.0 | 5.0 | 0.00 | 0.00 | 0.00 | 48 | 1018.7 |
| 20260509163352 | 50 | 353 | 2.0 | 4.0 | 0.00 | 0.00 | 0.00 | 50 | 1018.5 |
| 20260509162851 | 51 | 356 | 2.0 | 6.0 | 0.00 | 0.00 | 0.00 | 45 | 1018.4 |
| 20260509162344 | 54 | 297 | 1.0 | 3.0 | 0.00 | 0.00 | 0.00 | 47 | 1018.3 |
| 20260509161841 | 52 | 245 | 5.0 | 8.0 | 0.00 | 0.00 | 0.00 | 46 | 1018.3 |
| 20260509161337 | 53 | 218 | 3.0 | 5.0 | 0.00 | 0.00 | 0.00 | 47 | 1018.3 |
| 20260509160833 | 53 | 15 | 2.0 | 7.0 | 0.00 | 0.00 | 0.00 | 47 | 1018.4 |
| 20260509160329 | 52 | 245 | 2.0 | 7.0 | 0.00 | 0.00 | 0.00 | 49 | 1018.3 |
| 20260509155824 | 51 | 315 | 2.0 | 7.0 | 0.00 | 0.00 | 0.00 | 50 | 1018.1 |
| 20260509155321 | 53 | 290 | 4.0 | 10.0 | 0.00 | 0.00 | 0.00 | 48 | 1018.3 |
| 20260509154817 | 52 | 197 | 5.0 | 5.0 | 0.00 | 0.00 | 0.00 | 46 | 1018.3 |
| 20260509154313 | 53 | 303 | 5.0 | 7.0 | 0.00 | 0.00 | 0.00 | 50 | 1018.3 |
| 20260509153811 | 52 | 196 | 3.0 | 4.0 | 0.00 | 0.00 | 0.00 | 47 | 1018.1 |
| 20260509153307 | 52 | 151 | 3.0 | 6.0 | 0.00 | 0.00 | 0.00 | 48 | 1018.1 |
| 20260509152804 | 52 | 251 | 2.0 | 7.0 | 0.00 | 0.00 | 0.00 | 49 | 1017.9 |
| 20260509152300 | 51 | 324 | 3.0 | 7.0 | 0.00 | 0.00 | 0.00 | 47 | 1018.1 |
| 20260509151757 | 51 | 289 | 2.0 | 6.0 | 0.00 | 0.00 | 0.00 | 49 | 1017.7 |
| 20260509151253 | 51 | 274 | 2.0 | 8.0 | 0.00 | 0.00 | 0.00 | 51 | 1017.8 |
| 20260509150752 | 52 | 319 | 4.0 | 9.0 | 0.00 | 0.00 | 0.00 | 49 | 1017.7 |
| 20260509150250 | 52 | 346 | 0.0 | 3.0 | 0.00 | 0.00 | 0.00 | 51 | 1017.7 |
| 20260509145747 | 50 | 232 | 2.0 | 10.0 | 0.00 | 0.00 | 0.00 | 48 | 1017.3 |
| 20260509145246 | 53 | 77 | 1.0 | 4.0 | 0.00 | 0.00 | 0.00 | 47 | 1017.4 |
| 20260509144743 | 52 | 105 | 0.0 | 3.0 | 0.00 | 0.00 | 0.00 | 47 | 1017.6 |
| 20260509144240 | 51 | 222 | 3.0 | 5.0 | 0.00 | 0.00 | 0.00 | 45 | 1017.6 |
| 20260509143737 | 51 | 243 | 0.0 | 2.0 | 0.00 | 0.00 | 0.00 | 47 | 1017.3 |
| 20260509143234 | 51 | 235 | 2.0 | 4.0 | 0.00 | 0.00 | 0.00 | 46 | 1017.4 |
| 20260509142730 | 52 | 90 | 2.0 | 3.0 | 0.00 | 0.00 | 0.00 | 46 | 1017.4 |
| 20260509142226 | 51 | 69 | 1.0 | 3.0 | 0.00 | 0.00 | 0.00 | 52 | 1017.4 |
| 20260509141722 | 49 | 107 | 3.0 | 5.0 | 0.00 | 0.00 | 0.00 | 55 | 1017.3 |
| 20260509141220 | 48 | 99 | 3.0 | 5.0 | 0.00 | 0.00 | 0.00 | 59 | 1017.2 |
| 20260509140716 | 47 | 103 | 3.0 | 6.0 | 0.00 | 0.00 | 0.00 | 61 | 1017.2 |
| 20260509140214 | 46 | 86 | 3.0 | 5.0 | 0.00 | 0.00 | 0.00 | 62 | 1017.1 |
| 20260509135711 | 45 | 121 | 3.0 | 5.0 | 0.00 | 0.00 | 0.00 | 63 | 1017.1 |
| 20260509135209 | 45 | 121 | 3.0 | 6.0 | 0.00 | 0.00 | 0.00 | 65 | 1017.2 |
| 20260509134705 | 43 | 100 | 4.0 | 4.0 | 0.00 | 0.00 | 0.00 | 65 | 1017.0 |
| 20260509134203 | 43 | 72 | 3.0 | 5.0 | 0.00 | 0.00 | 0.00 | 65 | 1017.0 |
| 20260509133700 | 42 | 117 | 2.0 | 5.0 | 0.00 | 0.00 | 0.00 | 66 | 1017.0 |
| 20260509133157 | 42 | 82 | 2.0 | 5.0 | 0.00 | 0.00 | 0.00 | 66 | 1017.2 |
| 20260509132655 | 41 | 121 | 4.0 | 5.0 | 0.00 | 0.00 | 0.00 | 66 | 1016.8 |
| 20260509132153 | 41 | 334 | 0.0 | 7.0 | 0.00 | 0.00 | 0.00 | 65 | 1017.0 |
| 20260509131649 | 40 | 121 | 0.0 | 7.0 | 0.00 | 0.00 | 0.00 | 69 | 1016.7 |
| 20260509131146 | 38 | 133 | 3.0 | 8.0 | 0.00 | 0.00 | 0.00 | 71 | 1016.7 |
| 20260509130642 | 39 | 103 | 0.0 | 6.0 | 0.00 | 0.00 | 0.00 | 70 | 1016.8 |
| 20260509130138 | 38 | 157 | 0.0 | 5.0 | 0.00 | 0.00 | 0.00 | 71 | 1016.5 |
| 20260509125635 | 38 | 344 | 0.0 | 7.0 | 0.00 | 0.00 | 0.00 | 70 | 1016.7 |
| 20260509125132 | 37 | 81 | 4.0 | 8.0 | 0.00 | 0.00 | 0.00 | 72 | 1016.4 |
| 20260509124628 | 37 | 110 | 5.0 | 7.0 | 0.00 | 0.00 | 0.00 | 72 | 1016.2 |